Find Starlink 30585

NORAD ID: 58063 Int'l Des: 2023-158 Owner: SPXS Country: US Constellation: starlink operational
LEOCIRCULAR

实时位置

正在加载3D地球...

关于 Starlink 30585

正在加载描述...

即将过境

Passes for default location (London). Set your location on the main map for personalized predictions.

高度历史

Loading altitude history...

两行轨道根数

1 58063U 23158N 26133.38623525 .00002429 00000-0 97738-4 0 9995
2 58063 43.0059 21.7486 0001085 264.1288 95.9440 15.27584778143461
Epoch: May 13, 2026 • Age: 9 hours

当前状态

高度 492.3 km
速度 7.62 km/s
星下点 -34.85°S, 103.89°E
发射日期 Oct 13, 2023
运行时间 2.5 years
类型 internet

技术详情

分类 Payload
质量 730.00 kg
干质量 700.00 kg
总质量 730.00 kg
长度 0.30 m
直径 4.10 m
跨度 29.00 m
形状 Box + pan
制造商 SPXS
平台类型 Starlink V2M
阶段状态 In Orbit
所有者/国家 SPXS/US

Most Searched